Zurück zum Katalog

FENGYUN 1C DEB

AktivPO
NORAD 29758·DEBRIS·🇨🇳 China

Gestartet May 10, 1999 von Taiyuan Satellite Launch Center

Loading…

Nächste Überflüge (nächste 24 Stunden)

TLE

AktuellSource: Space-Track

Epoche: Sep 14, 2026, 07:23 UTC

1 29758U 99025AY  26257.30824472  .00004379  00000-0  12707-2 0  9990
2 29758  98.8670  28.9325 0020552 208.4108 181.5686 14.44781153 16478

Verfolge FENGYUN 1C DEB in Echtzeit mit AllMySat

Download on the App Store